This is the latest recevied weather packets stored in our database for station/object IZ1UQG-1. If no packets are shown the sender has not sent any weather packets the latest 10 day(s).
| Time | Temp. | Humidity | Pressure | Rain* | Wind** | Luminosity | Snow |
|---|---|---|---|---|---|---|---|
| 1778002135 | 15° C | 78% | 1012.5 hPa | 18.8 mm | - | - | - |
| 1778001835 | 15° C | 78% | 1012.5 hPa | 231.39 mm | - | - | - |
| 1778001535 | 15° C | 78% | 1012.3 hPa | 206.5 mm | - | - | - |
| 1778001235 | 15° C | 78% | 1012.5 hPa | 40.64 mm | - | - | - |
| 1778000935 | 15° C | 78% | 1012.6 hPa | 1.27 mm | - | - | - |
| 1778000635 | 15° C | 78% | 1012.5 hPa | 230.89 mm | - | - | - |
| 1778000335 | 15° C | 78% | 1012.5 hPa | 163.07 mm | - | - | - |
| 1778000035 | 15° C | 78% | 1012.5 hPa | 44.7 mm | - | - | - |
| 1777999735 | 15° C | 78% | 1012.4 hPa | 230.89 mm | - | - | - |
| 1777999435 | 15° C | 78% | 1012.4 hPa | 146.05 mm | - | - | - |
| 1777999135 | 15° C | 78% | 1012.6 hPa | 78.49 mm | - | - | - |
| 1777998835 | 15° C | 78% | 1012.6 hPa | 237.49 mm | - | - | - |
| 1777998535 | 15° C | 78% | 1012.6 hPa | 15.75 mm | - | - | - |
| 1777998235 | 15° C | 78% | 1012.6 hPa | 220.98 mm | - | - | - |
| 1777997935 | 15° C | 78% | 1012.7 hPa | 225.81 mm | - | - | - |
| 1777997635 | 15° C | 78% | 1012.5 hPa | 210.57 mm | - | - | - |
| 1777997335 | 15° C | 78% | 1012.6 hPa | 211.84 mm | - | - | - |
| 1777997035 | 15° C | 78% | 1012.6 hPa | 179.58 mm | - | - | - |
| 1777996735 | 15° C | 78% | 1012.6 hPa | 68.33 mm | - | - | - |
| 1777996135 | 15.56° C | 78% | 1012.6 hPa | 209.04 mm | - | - | - |
| 1777995835 | 15.56° C | 78% | 1012.6 hPa | 9.4 mm | - | - | - |
| 1777995535 | 15.56° C | 78% | 1012.6 hPa | 139.7 mm | - | - | - |
| 1777995235 | 15.56° C | 78% | 1012.9 hPa | 181.1 mm | - | - | - |
| 1777994935 | 15.56° C | 78% | 1012.9 hPa | 4.83 mm | - | - | - |
| 1777994635 | 15.56° C | 78% | 1012.8 hPa | 202.95 mm | - | - | - |
* Rain latest hour (hover to see other rain measurements)
** Current wind speed in m/s (hover to see current wind gust speed)